User: anonymous   Login
Location: Unspecified
(0.0000°N, 0.0000°E)
Time: 22:55:44
(UTC+00:00)
Language:

FIREBIRD 4 - Orbit

View from above orbital plane
View from above orbital plane
View from above satellite
View from above satellite

Ground track
Ground track

The orbit data is extracted from the following two-line orbital elements,

1 40378U 15003C   18344.81398728  .00003381  00000-0  13812-3 0  9990
2 40378  99.0904 281.6835 0129753   3.2607 356.9437 15.17952000213118
Epoch (UTC): 10 December 2018 19:32:08
Eccentricity: 0.0129753
inclination: 99.0904°
perigee height: 422 km
apogee height: 601 km
right ascension of ascending node: 281.6835°
argument of perigee: 3.2607°
revolutions per day: 15.17952000
mean anomaly at epoch: 356.9437°
orbit number at epoch: 21311

The dashed part of the orbit path shows where the satellite is in the earth's shadow,  

DLR